Year,Month,Day,Hour,Minute,Value (Times are PST for temperature in C)
2008,06,30,00,00,15.80
2008,06,30,00,01,15.80
2008,06,30,00,02,15.80
2008,06,30,00,03,15.90
2008,06,30,00,04,16.10
2008,06,30,00,05,16.10
2008,06,30,00,06,16.20
2008,06,30,00,07,16.30
2008,06,30,00,08,16.40
2008,06,30,00,09,16.50
2008,06,30,00,10,16.60
2008,06,30,00,11,16.70
2008,06,30,00,12,16.80
2008,06,30,00,13,16.90
2008,06,30,00,14,16.90
2008,06,30,00,15,17.00
2008,06,30,00,16,17.10
2008,06,30,00,17,17.20
2008,06,30,00,18,17.30
2008,06,30,00,19,17.30
2008,06,30,00,20,17.40
2008,06,30,00,21,17.50
2008,06,30,00,22,17.50
2008,06,30,00,23,17.60
2008,06,30,00,24,17.70
2008,06,30,00,25,17.70
2008,06,30,00,26,17.80
2008,06,30,00,27,17.90
2008,06,30,00,28,17.90
2008,06,30,00,29,17.90
2008,06,30,00,30,18.10
2008,06,30,00,31,18.10
2008,06,30,00,32,18.20
2008,06,30,00,33,18.20
2008,06,30,00,34,18.30
2008,06,30,00,35,18.30
2008,06,30,00,36,18.40
2008,06,30,00,37,18.40
2008,06,30,00,38,18.50
2008,06,30,00,39,18.50
2008,06,30,00,40,18.50
2008,06,30,00,41,18.50
2008,06,30,00,42,18.50
2008,06,30,00,43,18.50
2008,06,30,00,44,18.50
2008,06,30,00,45,18.50
2008,06,30,00,46,18.50
2008,06,30,00,47,18.40
2008,06,30,00,48,18.30
2008,06,30,00,49,18.30
2008,06,30,00,50,18.20
2008,06,30,00,51,18.20
2008,06,30,00,52,18.20
2008,06,30,00,53,18.10
2008,06,30,00,54,18.10
2008,06,30,00,55,18.00
2008,06,30,00,56,17.90
2008,06,30,00,57,17.90
2008,06,30,00,58,17.80
2008,06,30,00,59,17.70
2008,06,30,01,00,17.60
2008,06,30,01,01,17.40
2008,06,30,01,02,17.30
2008,06,30,01,03,17.10
2008,06,30,01,04,16.80
2008,06,30,01,05,16.70
2008,06,30,01,06,16.50
2008,06,30,01,07,16.40
2008,06,30,01,08,16.30
2008,06,30,01,09,16.10
2008,06,30,01,10,16.00
2008,06,30,01,11,15.90
2008,06,30,01,12,15.80
2008,06,30,01,13,15.80
2008,06,30,01,14,15.70
2008,06,30,01,15,15.60
2008,06,30,01,16,15.60
2008,06,30,01,17,15.50
2008,06,30,01,18,15.50
2008,06,30,01,19,15.50
2008,06,30,01,20,15.50
2008,06,30,01,21,15.50
2008,06,30,01,22,15.50
2008,06,30,01,23,15.50
2008,06,30,01,24,15.50
2008,06,30,01,25,15.50
2008,06,30,01,26,15.50
2008,06,30,01,27,15.50
2008,06,30,01,28,15.50
2008,06,30,01,29,15.50
2008,06,30,01,30,15.50
2008,06,30,01,31,15.60
2008,06,30,01,32,15.60
2008,06,30,01,33,15.60
2008,06,30,01,34,15.70
2008,06,30,01,35,15.70
2008,06,30,01,36,15.80
2008,06,30,01,37,15.80
2008,06,30,01,38,15.80
2008,06,30,01,39,15.90
2008,06,30,01,40,15.90
2008,06,30,01,41,16.00
2008,06,30,01,42,16.10
2008,06,30,01,43,16.10
2008,06,30,01,44,16.10
2008,06,30,01,45,16.10
2008,06,30,01,46,16.20
2008,06,30,01,47,16.20
2008,06,30,01,48,16.20
2008,06,30,01,49,16.20
2008,06,30,01,50,16.30
2008,06,30,01,51,16.30
2008,06,30,01,52,16.30
2008,06,30,01,53,16.30
2008,06,30,01,54,16.30
2008,06,30,01,55,16.30
2008,06,30,01,56,16.30
2008,06,30,01,57,16.30
2008,06,30,01,58,16.30
2008,06,30,01,59,16.20
2008,06,30,02,00,16.20
2008,06,30,02,01,16.20
2008,06,30,02,02,16.10
2008,06,30,02,03,16.10
2008,06,30,02,04,16.10
2008,06,30,02,05,16.10
2008,06,30,02,06,16.10
2008,06,30,02,07,16.10
2008,06,30,02,08,16.00
2008,06,30,02,09,15.90
2008,06,30,02,10,15.90
2008,06,30,02,11,15.90
2008,06,30,02,12,15.80
2008,06,30,02,13,15.80
2008,06,30,02,14,15.80
2008,06,30,02,15,15.90
2008,06,30,02,16,15.90
2008,06,30,02,17,15.90
2008,06,30,02,18,16.00
2008,06,30,02,19,16.10
2008,06,30,02,20,16.10
2008,06,30,02,21,16.10
2008,06,30,02,22,16.10
2008,06,30,02,23,16.10
2008,06,30,02,24,16.10
2008,06,30,02,25,16.10
2008,06,30,02,26,16.10
2008,06,30,02,27,16.10
2008,06,30,02,28,16.10
2008,06,30,02,29,16.10
2008,06,30,02,30,16.10
2008,06,30,02,31,16.10
2008,06,30,02,32,16.10
2008,06,30,02,33,16.10
2008,06,30,02,34,16.10
2008,06,30,02,35,16.10
2008,06,30,02,36,16.10
2008,06,30,02,37,16.00
2008,06,30,02,38,15.80
2008,06,30,02,39,15.60
2008,06,30,02,40,15.40
2008,06,30,02,41,15.30
2008,06,30,02,42,15.10
2008,06,30,02,43,15.00
2008,06,30,02,44,14.90
2008,06,30,02,45,14.80
2008,06,30,02,46,14.70
2008,06,30,02,47,14.60
2008,06,30,02,48,14.60
2008,06,30,02,49,14.50
2008,06,30,02,50,14.50
2008,06,30,02,51,14.40
2008,06,30,02,52,14.30
2008,06,30,02,53,14.30
2008,06,30,02,54,14.30
2008,06,30,02,55,14.20
2008,06,30,02,56,14.20
2008,06,30,02,57,14.20
2008,06,30,02,58,14.30
2008,06,30,02,59,14.30
2008,06,30,03,00,14.30
2008,06,30,03,01,14.40
2008,06,30,03,02,14.40
2008,06,30,03,03,14.50
2008,06,30,03,04,14.60
2008,06,30,03,05,14.70
2008,06,30,03,06,14.60
2008,06,30,03,07,14.60
2008,06,30,03,08,14.50
2008,06,30,03,09,14.50
2008,06,30,03,10,14.50
2008,06,30,03,11,14.50
2008,06,30,03,12,14.50
2008,06,30,03,13,14.50
2008,06,30,03,14,14.50
2008,06,30,03,15,14.50
2008,06,30,03,16,14.50
2008,06,30,03,17,14.50
2008,06,30,03,18,14.40
2008,06,30,03,19,14.40
2008,06,30,03,20,14.30
2008,06,30,03,21,14.30
2008,06,30,03,22,14.30
2008,06,30,03,23,14.20
2008,06,30,03,24,14.20
2008,06,30,03,25,14.20
2008,06,30,03,26,14.20
2008,06,30,03,27,14.20
2008,06,30,03,28,14.30
2008,06,30,03,29,14.30
2008,06,30,03,30,14.30
2008,06,30,03,31,14.20
2008,06,30,03,32,14.00
2008,06,30,03,33,13.80
2008,06,30,03,34,13.70
2008,06,30,03,35,13.60
2008,06,30,03,36,13.50
2008,06,30,03,37,13.50
2008,06,30,03,38,13.50
2008,06,30,03,39,13.50
2008,06,30,03,40,13.50
2008,06,30,03,41,13.50
2008,06,30,03,42,13.50
2008,06,30,03,43,13.50
2008,06,30,03,44,13.60
2008,06,30,03,45,13.60
2008,06,30,03,46,13.60
2008,06,30,03,47,13.60
2008,06,30,03,48,13.60
2008,06,30,03,49,13.60
2008,06,30,03,50,13.70
2008,06,30,03,51,13.70
2008,06,30,03,52,13.70
2008,06,30,03,53,13.80
2008,06,30,03,54,13.80
2008,06,30,03,55,13.80
2008,06,30,03,56,13.90
2008,06,30,03,57,13.90
2008,06,30,03,58,13.90
2008,06,30,03,59,13.90
2008,06,30,04,00,14.00
2008,06,30,04,01,14.00
2008,06,30,04,02,14.10
2008,06,30,04,03,14.10
2008,06,30,04,04,14.20
2008,06,30,04,05,14.20
2008,06,30,04,06,14.30
2008,06,30,04,07,14.40
2008,06,30,04,08,14.50
2008,06,30,04,09,14.60
2008,06,30,04,10,14.70
2008,06,30,04,11,14.80
2008,06,30,04,12,14.90
2008,06,30,04,13,15.00
2008,06,30,04,14,15.10
2008,06,30,04,15,15.20
2008,06,30,04,16,15.20
2008,06,30,04,17,15.30
2008,06,30,04,18,15.30
2008,06,30,04,19,15.30
2008,06,30,04,20,15.40
2008,06,30,04,21,15.50
2008,06,30,04,22,15.50
2008,06,30,04,23,15.60
2008,06,30,04,24,15.60
2008,06,30,04,25,15.70
2008,06,30,04,26,15.80
2008,06,30,04,27,15.80
2008,06,30,04,28,15.80
2008,06,30,04,29,15.90
2008,06,30,04,30,15.90
2008,06,30,04,31,15.90
2008,06,30,04,32,15.90
2008,06,30,04,33,15.90
2008,06,30,04,34,15.80
2008,06,30,04,35,15.80
2008,06,30,04,36,15.80
2008,06,30,04,37,15.80
2008,06,30,04,38,15.80
2008,06,30,04,39,15.80
2008,06,30,04,40,15.80
2008,06,30,04,41,15.80
2008,06,30,04,42,15.80
2008,06,30,04,43,15.80
2008,06,30,04,44,15.80
2008,06,30,04,45,15.70
2008,06,30,04,46,15.70
2008,06,30,04,47,15.70
2008,06,30,04,48,15.60
2008,06,30,04,49,15.60
2008,06,30,04,50,15.60
2008,06,30,04,51,15.60
2008,06,30,04,52,15.60
2008,06,30,04,53,15.60
2008,06,30,04,54,15.60
2008,06,30,04,55,15.60
2008,06,30,04,56,15.70
2008,06,30,04,57,15.70
2008,06,30,04,58,15.70
2008,06,30,04,59,15.70
2008,06,30,05,00,15.70
2008,06,30,05,01,15.60
2008,06,30,05,02,15.60
2008,06,30,05,03,15.60
2008,06,30,05,04,15.60
2008,06,30,05,05,15.60
2008,06,30,05,06,15.60
2008,06,30,05,07,15.60
2008,06,30,05,08,15.60
2008,06,30,05,09,15.50
2008,06,30,05,10,15.50
2008,06,30,05,11,15.50
2008,06,30,05,12,15.40
2008,06,30,05,13,15.40
2008,06,30,05,14,15.10
2008,06,30,05,15,14.80
2008,06,30,05,16,14.60
2008,06,30,05,17,14.40
2008,06,30,05,18,14.30
2008,06,30,05,19,14.10
2008,06,30,05,20,14.00
2008,06,30,05,21,13.80
2008,06,30,05,22,13.60
2008,06,30,05,23,13.50
2008,06,30,05,24,13.40
2008,06,30,05,25,13.40
2008,06,30,05,26,13.30
2008,06,30,05,27,13.30
2008,06,30,05,28,13.30
2008,06,30,05,29,13.30
2008,06,30,05,30,13.30
2008,06,30,05,31,13.20
2008,06,30,05,32,13.20
2008,06,30,05,33,13.20
2008,06,30,05,34,13.20
2008,06,30,05,35,13.10
2008,06,30,05,36,13.10
2008,06,30,05,37,13.00
2008,06,30,05,38,13.00
2008,06,30,05,39,12.90
2008,06,30,05,40,12.90
2008,06,30,05,41,12.80
2008,06,30,05,42,12.80
2008,06,30,05,43,12.80
2008,06,30,05,44,12.80
2008,06,30,05,45,12.80
2008,06,30,05,46,12.80
2008,06,30,05,47,12.80
2008,06,30,05,48,12.70
2008,06,30,05,49,12.70
2008,06,30,05,50,12.70
2008,06,30,05,51,12.60
2008,06,30,05,52,12.60
2008,06,30,05,53,12.60
2008,06,30,05,54,12.60
2008,06,30,05,55,12.60
2008,06,30,05,56,12.60
2008,06,30,05,57,12.60
2008,06,30,05,58,12.60
2008,06,30,05,59,12.60
2008,06,30,06,00,12.60
2008,06,30,06,01,12.60
2008,06,30,06,02,12.60
2008,06,30,06,03,12.70
2008,06,30,06,04,12.70
2008,06,30,06,05,12.70
2008,06,30,06,06,12.80
2008,06,30,06,07,12.80
2008,06,30,06,08,12.80
2008,06,30,06,09,12.80
2008,06,30,06,10,12.80
2008,06,30,06,11,12.80
2008,06,30,06,12,12.90
2008,06,30,06,13,12.90
2008,06,30,06,14,12.90
2008,06,30,06,15,13.00
2008,06,30,06,16,13.00
2008,06,30,06,17,13.00
2008,06,30,06,18,13.00
2008,06,30,06,19,13.00
2008,06,30,06,20,13.00
2008,06,30,06,21,13.00
2008,06,30,06,22,13.00
2008,06,30,06,23,13.00
2008,06,30,06,24,13.10
2008,06,30,06,25,13.10
2008,06,30,06,26,13.10
2008,06,30,06,27,13.10
2008,06,30,06,28,13.10
2008,06,30,06,29,13.10
2008,06,30,06,30,13.10
2008,06,30,06,31,13.10
2008,06,30,06,32,13.00
2008,06,30,06,33,13.00
2008,06,30,06,34,13.00
2008,06,30,06,35,13.00
2008,06,30,06,36,13.00
2008,06,30,06,37,13.00
2008,06,30,06,38,13.00
2008,06,30,06,39,13.00
2008,06,30,06,40,12.90
2008,06,30,06,41,12.90
2008,06,30,06,42,12.90
2008,06,30,06,43,12.90
2008,06,30,06,44,12.90
2008,06,30,06,45,12.90
2008,06,30,06,46,12.90
2008,06,30,06,47,12.90
2008,06,30,06,48,12.90
2008,06,30,06,49,12.90
2008,06,30,06,50,13.00
2008,06,30,06,51,13.00
2008,06,30,06,52,13.00
2008,06,30,06,53,13.00
2008,06,30,06,54,13.10
2008,06,30,06,55,13.10
2008,06,30,06,56,13.10
2008,06,30,06,57,13.20
2008,06,30,06,58,13.20
2008,06,30,06,59,13.20
2008,06,30,07,00,13.30
2008,06,30,07,01,13.30
2008,06,30,07,02,13.30
2008,06,30,07,03,13.30
2008,06,30,07,04,13.30
2008,06,30,07,05,13.30
2008,06,30,07,06,13.40
2008,06,30,07,07,13.40
2008,06,30,07,08,13.50
2008,06,30,07,09,13.50
2008,06,30,07,10,13.60
2008,06,30,07,11,13.60
2008,06,30,07,12,13.60
2008,06,30,07,13,13.70
2008,06,30,07,14,13.70
2008,06,30,07,15,13.70
2008,06,30,07,16,13.80
2008,06,30,07,17,13.80
2008,06,30,07,18,13.80
2008,06,30,07,19,13.80
2008,06,30,07,20,13.90
2008,06,30,07,21,13.90
2008,06,30,07,22,13.90
2008,06,30,07,23,14.00
2008,06,30,07,24,14.00
2008,06,30,07,25,14.00
2008,06,30,07,26,14.10
2008,06,30,07,27,14.10
2008,06,30,07,28,14.10
2008,06,30,07,29,14.20
2008,06,30,07,30,14.20
2008,06,30,07,31,14.20
2008,06,30,07,32,14.20
2008,06,30,07,33,14.20
2008,06,30,07,34,14.20
2008,06,30,07,35,14.10
2008,06,30,07,36,14.10
2008,06,30,07,37,14.00
2008,06,30,07,38,13.90
2008,06,30,07,39,13.80
2008,06,30,07,40,13.80
2008,06,30,07,41,13.80
2008,06,30,07,42,13.80
2008,06,30,07,43,13.80
2008,06,30,07,44,13.80
2008,06,30,07,45,13.80
2008,06,30,07,46,13.80
2008,06,30,07,47,13.80
2008,06,30,07,48,13.70
2008,06,30,07,49,13.70
2008,06,30,07,50,13.70
2008,06,30,07,51,13.70
2008,06,30,07,52,13.60
2008,06,30,07,53,13.60
2008,06,30,07,54,13.50
2008,06,30,07,55,13.50
2008,06,30,07,56,13.50
2008,06,30,07,57,13.50
2008,06,30,07,58,13.50
2008,06,30,07,59,13.40
2008,06,30,08,00,13.40
2008,06,30,08,01,13.40
2008,06,30,08,02,13.40
2008,06,30,08,03,13.50
2008,06,30,08,04,13.50
2008,06,30,08,05,13.50
2008,06,30,08,06,13.50
2008,06,30,08,07,13.60
2008,06,30,08,08,13.60
2008,06,30,08,09,13.70
2008,06,30,08,10,13.70
2008,06,30,08,11,13.80
2008,06,30,08,12,13.90
2008,06,30,08,13,14.00
2008,06,30,08,14,14.00
2008,06,30,08,15,14.10
2008,06,30,08,16,14.20
2008,06,30,08,17,14.20
2008,06,30,08,18,14.30
2008,06,30,08,19,14.40
2008,06,30,08,20,14.50
2008,06,30,08,21,14.50
2008,06,30,08,22,14.60
2008,06,30,08,23,14.60
2008,06,30,08,24,14.70
2008,06,30,08,25,14.70
2008,06,30,08,26,14.80
2008,06,30,08,27,14.80
2008,06,30,08,28,14.80
2008,06,30,08,29,14.90
2008,06,30,08,30,14.90
2008,06,30,08,31,15.00
2008,06,30,08,32,15.00
2008,06,30,08,33,15.00
2008,06,30,08,34,15.10
2008,06,30,08,35,15.10
2008,06,30,08,36,15.10
2008,06,30,08,37,15.10
2008,06,30,08,38,15.10
2008,06,30,08,39,15.10
2008,06,30,08,40,15.10
2008,06,30,08,41,15.20
2008,06,30,08,42,15.10
2008,06,30,08,43,15.10
2008,06,30,08,44,15.10
2008,06,30,08,45,15.00
2008,06,30,08,46,15.00
2008,06,30,08,47,15.00
2008,06,30,08,48,14.90
2008,06,30,08,49,14.90
2008,06,30,08,50,15.00
2008,06,30,08,51,15.00
2008,06,30,08,52,15.00
2008,06,30,08,53,15.00
2008,06,30,08,54,15.00
2008,06,30,08,55,14.90
2008,06,30,08,56,14.90
2008,06,30,08,57,14.90
2008,06,30,08,58,14.90
2008,06,30,08,59,14.90
2008,06,30,09,00,14.90
2008,06,30,09,01,14.90
2008,06,30,09,02,14.90
2008,06,30,09,03,14.90
2008,06,30,09,04,15.00
2008,06,30,09,05,15.10
2008,06,30,09,06,15.10
2008,06,30,09,07,15.20
2008,06,30,09,08,15.30
2008,06,30,09,09,15.30
2008,06,30,09,10,15.40
2008,06,30,09,11,15.60
2008,06,30,09,12,15.70
2008,06,30,09,13,15.80
2008,06,30,09,14,16.00
2008,06,30,09,15,16.10
2008,06,30,09,16,16.30
2008,06,30,09,17,16.40
2008,06,30,09,18,16.50
2008,06,30,09,19,16.60
2008,06,30,09,20,16.60
2008,06,30,09,21,16.60
2008,06,30,09,22,16.50
2008,06,30,09,23,16.40
2008,06,30,09,24,16.30
2008,06,30,09,25,16.20
2008,06,30,09,26,16.10
2008,06,30,09,27,16.10
2008,06,30,09,28,16.10
2008,06,30,09,29,16.10
2008,06,30,09,30,16.20
2008,06,30,09,31,16.30
2008,06,30,09,32,16.40
2008,06,30,09,33,16.40
2008,06,30,09,34,16.40
2008,06,30,09,35,16.40
2008,06,30,09,36,16.40
2008,06,30,09,37,16.30
2008,06,30,09,38,16.30
2008,06,30,09,39,16.30
2008,06,30,09,40,16.40
2008,06,30,09,41,16.40
2008,06,30,09,42,16.50
2008,06,30,09,43,16.60
2008,06,30,09,44,16.70
2008,06,30,09,45,16.80
2008,06,30,09,46,16.90
2008,06,30,09,47,16.90
2008,06,30,09,48,17.00
2008,06,30,09,49,17.10
2008,06,30,09,50,17.00
2008,06,30,09,51,16.90
2008,06,30,09,52,16.90
2008,06,30,09,53,16.90
2008,06,30,09,54,16.80
2008,06,30,09,55,16.70
2008,06,30,09,56,16.40
2008,06,30,09,57,16.40
2008,06,30,09,58,16.40
2008,06,30,09,59,16.60
2008,06,30,10,00,16.60
2008,06,30,10,01,16.50
2008,06,30,10,02,16.40
2008,06,30,10,03,16.40
2008,06,30,10,04,16.40
2008,06,30,10,05,16.50
2008,06,30,10,06,16.60
2008,06,30,10,07,16.70
2008,06,30,10,08,16.80
2008,06,30,10,09,16.90
2008,06,30,10,10,17.00
2008,06,30,10,11,17.10
2008,06,30,10,12,17.30
2008,06,30,10,13,17.50
2008,06,30,10,14,17.80
2008,06,30,10,15,18.10
2008,06,30,10,16,18.30
2008,06,30,10,17,18.40
2008,06,30,10,18,18.30
2008,06,30,10,19,18.00
2008,06,30,10,20,17.50
2008,06,30,10,21,17.20
2008,06,30,10,22,17.00
2008,06,30,10,23,16.90
2008,06,30,10,24,16.80
2008,06,30,10,25,16.70
2008,06,30,10,26,16.80
2008,06,30,10,27,16.80
2008,06,30,10,28,16.90
2008,06,30,10,29,17.00
2008,06,30,10,30,17.00
2008,06,30,10,31,16.80
2008,06,30,10,32,16.70
2008,06,30,10,33,16.60
2008,06,30,10,34,16.40
2008,06,30,10,35,16.30
2008,06,30,10,36,16.40
2008,06,30,10,37,16.30
2008,06,30,10,38,16.00
2008,06,30,10,39,15.70
2008,06,30,10,40,15.60
2008,06,30,10,41,15.50
2008,06,30,10,42,15.40
2008,06,30,10,43,15.30
2008,06,30,10,44,15.30
2008,06,30,10,45,15.40
2008,06,30,10,46,15.40
2008,06,30,10,47,15.30
2008,06,30,10,48,15.40
2008,06,30,10,49,15.40
2008,06,30,10,50,15.50
2008,06,30,10,51,15.60
2008,06,30,10,52,15.70
2008,06,30,10,53,15.90
2008,06,30,10,54,16.10
2008,06,30,10,55,16.30
2008,06,30,10,56,16.50
2008,06,30,10,57,16.80
2008,06,30,10,58,17.00
2008,06,30,10,59,17.20
2008,06,30,11,00,17.40
2008,06,30,11,01,17.60
2008,06,30,11,02,17.80
2008,06,30,11,03,17.90
2008,06,30,11,04,18.10
2008,06,30,11,05,18.20
2008,06,30,11,06,18.40
2008,06,30,11,07,18.50
2008,06,30,11,08,18.60
2008,06,30,11,09,18.60
2008,06,30,11,10,18.60
2008,06,30,11,11,18.70
2008,06,30,11,12,18.80
2008,06,30,11,13,18.90
2008,06,30,11,14,19.00
2008,06,30,11,15,19.10
2008,06,30,11,16,19.20
2008,06,30,11,17,19.30
2008,06,30,11,18,19.40
2008,06,30,11,19,19.50
2008,06,30,11,20,19.70
2008,06,30,11,21,19.90
2008,06,30,11,22,20.00
2008,06,30,11,23,20.20
2008,06,30,11,24,20.20
2008,06,30,11,25,20.40
2008,06,30,11,26,20.50
2008,06,30,11,27,20.50
2008,06,30,11,28,20.50
2008,06,30,11,29,20.60
2008,06,30,11,30,20.60
2008,06,30,11,31,20.60
2008,06,30,11,32,20.70
2008,06,30,11,33,20.70
2008,06,30,11,34,20.70
2008,06,30,11,35,20.80
2008,06,30,11,36,20.80
2008,06,30,11,37,20.90
2008,06,30,11,38,20.90
2008,06,30,11,39,21.00
2008,06,30,11,40,21.00
2008,06,30,11,41,21.10
2008,06,30,11,42,21.20
2008,06,30,11,43,21.30
2008,06,30,11,44,21.40
2008,06,30,11,45,21.60
2008,06,30,11,46,21.70
2008,06,30,11,47,21.70
2008,06,30,11,48,21.80
2008,06,30,11,49,21.90
2008,06,30,11,50,22.00
2008,06,30,11,51,22.00
2008,06,30,11,52,22.10
2008,06,30,11,53,22.20
2008,06,30,11,54,22.30
2008,06,30,11,55,22.40
2008,06,30,11,56,22.50
2008,06,30,11,57,22.60
2008,06,30,11,58,22.60
2008,06,30,11,59,22.60
2008,06,30,12,00,22.60
2008,06,30,12,01,22.50
2008,06,30,12,02,22.40
2008,06,30,12,03,22.30
2008,06,30,12,04,22.30
2008,06,30,12,05,22.40
2008,06,30,12,06,22.50
2008,06,30,12,07,22.50
2008,06,30,12,08,22.50
2008,06,30,12,09,22.60
2008,06,30,12,10,22.70
2008,06,30,12,11,22.80
2008,06,30,12,12,22.80
2008,06,30,12,13,22.80
2008,06,30,12,14,22.90
2008,06,30,12,15,22.90
2008,06,30,12,16,22.90
2008,06,30,12,17,22.90
2008,06,30,12,18,22.80
2008,06,30,12,19,22.60
2008,06,30,12,20,22.60
2008,06,30,12,21,22.50
2008,06,30,12,22,22.50
2008,06,30,12,23,22.50
2008,06,30,12,24,22.60
2008,06,30,12,25,22.60
2008,06,30,12,26,22.70
2008,06,30,12,27,22.80
2008,06,30,12,28,22.70
2008,06,30,12,29,22.70
2008,06,30,12,30,22.60
2008,06,30,12,31,22.70
2008,06,30,12,32,22.80
2008,06,30,12,33,22.80
2008,06,30,12,34,22.90
2008,06,30,12,35,22.90
2008,06,30,12,36,22.90
2008,06,30,12,37,22.90
2008,06,30,12,38,22.90
2008,06,30,12,39,22.90
2008,06,30,12,40,22.80
2008,06,30,12,41,22.80
2008,06,30,12,42,22.80
2008,06,30,12,43,22.80
2008,06,30,12,44,22.80
2008,06,30,12,45,22.60
2008,06,30,12,46,22.00
2008,06,30,12,47,21.40
2008,06,30,12,48,20.80
2008,06,30,12,49,20.20
2008,06,30,12,50,19.80
2008,06,30,12,51,19.60
2008,06,30,12,52,19.40
2008,06,30,12,53,19.30
2008,06,30,12,54,19.30
2008,06,30,12,55,19.20
2008,06,30,12,56,19.30
2008,06,30,12,57,19.40
2008,06,30,12,58,19.50
2008,06,30,12,59,19.60
2008,06,30,13,00,19.80
2008,06,30,13,01,20.10
2008,06,30,13,02,20.20
2008,06,30,13,03,20.30
2008,06,30,13,04,20.40
2008,06,30,13,05,20.30
2008,06,30,13,06,20.20
2008,06,30,13,07,20.20
2008,06,30,13,08,20.20
2008,06,30,13,09,20.10
2008,06,30,13,10,19.90
2008,06,30,13,11,19.70
2008,06,30,13,12,19.60
2008,06,30,13,13,19.60
2008,06,30,13,14,19.70
2008,06,30,13,15,19.80
2008,06,30,13,16,19.80
2008,06,30,13,17,19.90
2008,06,30,13,18,20.00
2008,06,30,13,19,20.20
2008,06,30,13,20,20.20
2008,06,30,13,21,20.40
2008,06,30,13,22,20.50
2008,06,30,13,23,20.60
2008,06,30,13,24,20.80
2008,06,30,13,25,20.90
2008,06,30,13,26,21.00
2008,06,30,13,27,21.10
2008,06,30,13,28,21.20
2008,06,30,13,29,21.20
2008,06,30,13,30,21.30
2008,06,30,13,31,21.30
2008,06,30,13,32,21.40
2008,06,30,13,33,21.50
2008,06,30,13,34,21.60
2008,06,30,13,35,21.40
2008,06,30,13,36,21.30
2008,06,30,13,37,21.30
2008,06,30,13,38,21.30
2008,06,30,13,39,21.30
2008,06,30,13,40,21.30
2008,06,30,13,41,21.40
2008,06,30,13,42,21.30
2008,06,30,13,43,21.30
2008,06,30,13,44,21.20
2008,06,30,13,45,21.10
2008,06,30,13,46,21.10
2008,06,30,13,47,21.20
2008,06,30,13,48,21.20
2008,06,30,13,49,21.30
2008,06,30,13,50,21.40
2008,06,30,13,51,21.60
2008,06,30,13,52,21.80
2008,06,30,13,53,21.90
2008,06,30,13,54,22.00
2008,06,30,13,55,22.20
2008,06,30,13,56,22.20
2008,06,30,13,57,22.10
2008,06,30,13,58,22.00
2008,06,30,13,59,22.00
2008,06,30,14,00,22.00
2008,06,30,14,01,22.00
2008,06,30,14,02,22.10
2008,06,30,14,03,22.10
2008,06,30,14,04,22.20
2008,06,30,14,05,22.20
2008,06,30,14,06,22.20
2008,06,30,14,07,22.20
2008,06,30,14,08,22.30
2008,06,30,14,09,22.30
2008,06,30,14,10,22.30
2008,06,30,14,11,22.30
2008,06,30,14,12,22.40
2008,06,30,14,13,22.40
2008,06,30,14,14,22.50
2008,06,30,14,15,22.60
2008,06,30,14,16,22.60
2008,06,30,14,17,22.80
2008,06,30,14,18,22.80
2008,06,30,14,19,22.80
2008,06,30,14,20,22.70
2008,06,30,14,21,22.70
2008,06,30,14,22,22.70
2008,06,30,14,23,22.70
2008,06,30,14,24,22.70
2008,06,30,14,25,22.80
2008,06,30,14,26,22.90
2008,06,30,14,27,22.70
2008,06,30,14,28,22.60
2008,06,30,14,29,22.50
2008,06,30,14,30,22.50
2008,06,30,14,31,22.50
2008,06,30,14,32,22.40
2008,06,30,14,33,22.40
2008,06,30,14,34,22.50
2008,06,30,14,35,22.50
2008,06,30,14,36,22.40
2008,06,30,14,37,22.50
2008,06,30,14,38,22.50
2008,06,30,14,39,22.60
2008,06,30,14,40,22.70
2008,06,30,14,41,22.80
2008,06,30,14,42,22.80
2008,06,30,14,43,22.80
2008,06,30,14,44,22.80
2008,06,30,14,45,22.70
2008,06,30,14,46,22.40
2008,06,30,14,47,22.30
2008,06,30,14,48,22.40
2008,06,30,14,49,22.40
2008,06,30,14,50,22.40
2008,06,30,14,51,22.40
2008,06,30,14,52,22.50
2008,06,30,14,53,22.50
2008,06,30,14,54,22.40
2008,06,30,14,55,22.30
2008,06,30,14,56,22.20
2008,06,30,14,57,22.10
2008,06,30,14,58,22.10
2008,06,30,14,59,22.00
2008,06,30,15,00,22.00
2008,06,30,15,01,22.00
2008,06,30,15,02,22.00
2008,06,30,15,03,22.00
2008,06,30,15,04,22.00
2008,06,30,15,05,22.10
2008,06,30,15,06,22.10
2008,06,30,15,07,22.10
2008,06,30,15,08,22.20
2008,06,30,15,09,22.10
2008,06,30,15,10,22.20
2008,06,30,15,11,22.30
2008,06,30,15,12,22.40
2008,06,30,15,13,22.40
2008,06,30,15,14,22.20
2008,06,30,15,15,22.20
2008,06,30,15,16,22.00
2008,06,30,15,17,21.80
2008,06,30,15,18,21.60
2008,06,30,15,19,21.60
2008,06,30,15,20,21.40
2008,06,30,15,21,21.30
2008,06,30,15,22,21.30
2008,06,30,15,23,21.10
2008,06,30,15,24,21.00
2008,06,30,15,25,20.80
2008,06,30,15,26,20.70
2008,06,30,15,27,20.50
2008,06,30,15,28,20.20
2008,06,30,15,29,20.00
2008,06,30,15,30,19.90
2008,06,30,15,31,19.90
2008,06,30,15,32,19.90
2008,06,30,15,33,19.60
2008,06,30,15,34,19.40
2008,06,30,15,35,19.20
2008,06,30,15,36,18.90
2008,06,30,15,37,18.90
2008,06,30,15,38,18.90
2008,06,30,15,39,18.80
2008,06,30,15,40,18.70
2008,06,30,15,41,18.70
2008,06,30,15,42,18.70
2008,06,30,15,43,18.80
2008,06,30,15,44,19.00
2008,06,30,15,45,19.20
2008,06,30,15,46,19.40
2008,06,30,15,47,19.50
2008,06,30,15,48,19.60
2008,06,30,15,49,19.70
2008,06,30,15,50,19.90
2008,06,30,15,51,20.00
2008,06,30,15,52,20.10
2008,06,30,15,53,20.30
2008,06,30,15,54,20.30
2008,06,30,15,55,20.40
2008,06,30,15,56,20.50
2008,06,30,15,57,20.50
2008,06,30,15,58,20.50
2008,06,30,15,59,20.60
2008,06,30,16,00,20.70
2008,06,30,16,01,20.80
2008,06,30,16,02,20.80
2008,06,30,16,03,20.90
2008,06,30,16,04,20.90
2008,06,30,16,05,20.80
2008,06,30,16,06,20.70
2008,06,30,16,07,20.60
2008,06,30,16,08,20.60
2008,06,30,16,09,20.70
2008,06,30,16,10,20.80
2008,06,30,16,11,21.00
2008,06,30,16,12,21.10
2008,06,30,16,13,21.30
2008,06,30,16,14,21.40
2008,06,30,16,15,21.60
2008,06,30,16,16,21.70
2008,06,30,16,17,21.90
2008,06,30,16,18,22.00
2008,06,30,16,19,22.20
2008,06,30,16,20,22.20
2008,06,30,16,21,22.30
2008,06,30,16,22,22.20
2008,06,30,16,23,22.20
2008,06,30,16,24,22.20
2008,06,30,16,25,22.10
2008,06,30,16,26,22.10
2008,06,30,16,27,22.20
2008,06,30,16,28,22.20
2008,06,30,16,29,22.10
2008,06,30,16,30,22.10
2008,06,30,16,31,22.10
2008,06,30,16,32,22.10
2008,06,30,16,33,22.00
2008,06,30,16,34,21.90
2008,06,30,16,35,21.90
2008,06,30,16,36,21.90
2008,06,30,16,37,21.90
2008,06,30,16,38,22.00
2008,06,30,16,39,22.00
2008,06,30,16,40,22.00
2008,06,30,16,41,22.00
2008,06,30,16,42,22.00
2008,06,30,16,43,22.00
2008,06,30,16,44,22.10
2008,06,30,16,45,22.10
2008,06,30,16,46,22.10
2008,06,30,16,47,22.10
2008,06,30,16,48,22.10
2008,06,30,16,49,22.10
2008,06,30,16,50,22.10
2008,06,30,16,51,22.20
2008,06,30,16,52,22.30
2008,06,30,16,53,22.30
2008,06,30,16,54,22.30
2008,06,30,16,55,22.30
2008,06,30,16,56,22.40
2008,06,30,16,57,22.40
2008,06,30,16,58,22.40
2008,06,30,16,59,22.50
2008,06,30,17,00,22.60
2008,06,30,17,01,22.70
2008,06,30,17,02,22.70
2008,06,30,17,03,22.70
2008,06,30,17,04,22.60
2008,06,30,17,05,22.60
2008,06,30,17,06,22.60
2008,06,30,17,07,22.70
2008,06,30,17,08,22.70
2008,06,30,17,09,22.70
2008,06,30,17,10,22.70
2008,06,30,17,11,22.70
2008,06,30,17,12,22.80
2008,06,30,17,13,22.80
2008,06,30,17,14,22.70
2008,06,30,17,15,22.80
2008,06,30,17,16,22.70
2008,06,30,17,17,22.70
2008,06,30,17,18,22.80
2008,06,30,17,19,22.80